EW5622 Weather Reports


time (UTC)temp
F
wind
direction
speed
knots
gust
knots
rain 1hr
in
rain 24hr
in
rain mn
in
humidity
%
barometer
mb
20260510065615 63 161 0.0 4.3 0.00 0.00 0.00 84 1007.1
20260510064506 62 185 0.0 2.6 0.00 0.00 0.00 87 1007.1
20260510063605 61 202 1.7 2.6 0.00 0.00 0.00 90 1007.1
20260510062913 60 0 0.0 0.0 0.00 0.00 0.00 92 1007.1
20260510061805 58 180 0.0 1.7 0.00 0.00 0.00 94 1007.1
20260510060903 57 0 0.0 0.0 0.00 0.00 0.00 95 1007.1
20260510060005 57 0 0.0 0.0 0.00 0.00 0.00 95 1007.1
20260510055616 57 0 0.0 0.0 0.00 0.00 0.00 95 1007.1
20260510054503 56 0 0.0 0.0 0.00 0.00 0.00 96 1007.1
20260510053603 56 0 0.0 0.0 0.00 0.00 0.00 96 1007.1
20260510052703 56 0 0.0 0.0 0.00 0.00 0.00 96 1006.1
20260510051803 56 0 0.0 0.0 0.00 0.00 0.00 96 1006.1
20260510050903 56 0 0.0 0.0 0.00 0.00 0.00 96 1007.1
20260510050214 56 0 0.0 0.0 0.00 0.00 0.00 96 1007.1
20260510045614 56 0 0.0 0.0 0.00 0.00 0.00 96 1007.1
20260510044713 56 0 0.0 0.0 0.00 0.00 0.00 95 1007.1
20260510043603 56 0 0.0 0.0 0.00 0.00 0.00 95 1006.1
20260510042703 56 0 0.0 0.0 0.00 0.00 0.00 95 1006.1
20260510041803 57 0 0.0 0.0 0.00 0.00 0.00 95 1006.1
20260510040903 57 0 0.0 0.0 0.00 0.00 0.00 95 1006.1
20260510040005 57 0 0.0 0.0 0.00 0.00 0.00 94 1006.1
20260510035615 57 0 0.0 0.0 0.00 0.00 0.00 94 1007.1
20260510034715 57 0 0.0 0.0 0.00 0.00 0.00 94 1007.1
20260510033603 57 0 0.0 0.0 0.00 0.00 0.00 93 1007.1
20260510032915 57 0 0.0 0.0 0.00 0.00 0.00 93 1007.1
20260510031803 58 0 0.0 0.0 0.00 0.00 0.00 93 1007.1
20260510030903 58 0 0.0 0.0 0.00 0.00 0.00 94 1007.1
20260510030004 58 0 0.0 0.0 0.00 0.00 0.00 94 1007.1
20260510025403 58 0 0.0 0.0 0.00 0.00 0.00 94 1007.1
20260510024503 58 0 0.0 0.0 0.00 0.00 0.00 94 1007.1
20260510023814 58 0 0.0 0.0 0.00 0.00 0.00 94 1007.1
20260510022703 58 0 0.0 0.0 0.00 0.00 0.00 95 1007.1
20260510021805 58 0 0.0 0.0 0.00 0.00 0.00 95 1007.1
20260510020905 58 0 0.0 0.0 0.00 0.00 0.00 95 1007.1
20260510020215 58 0 0.0 0.0 0.00 0.00 0.00 95 1007.1
20260510015403 58 0 0.0 0.0 0.00 0.00 0.00 95 1007.1
20260510014503 58 0 0.0 0.0 0.00 0.00 0.00 95 1007.1
20260510013603 58 0 0.0 0.0 0.00 0.00 0.00 95 1007.1
20260510012703 58 0 0.0 0.0 0.00 0.00 0.00 94 1007.1
20260510011803 58 0 0.0 0.0 0.00 0.00 0.00 94 1007.1
20260510010903 57 0 0.0 0.0 0.00 0.00 0.00 94 1007.1
20260510010213 57 0 0.0 0.0 0.00 0.00 0.00 94 1007.1
20260510005403 57 0 0.0 0.0 0.00 0.00 0.00 94 1007.1
20260510004505 57 0 0.0 0.0 0.00 0.00 0.00 93 1007.1
20260510003603 57 0 0.0 0.0 0.00 0.00 0.00 93 1007.1
20260510002703 58 0 0.0 0.0 0.00 0.00 0.00 93 1007.1
20260510001805 58 0 0.0 0.0 0.00 0.00 0.00 92 1007.1
20260510001113 58 0 0.0 0.0 0.00 0.00 0.00 92 1007.1
20260510000004 58 0 0.0 0.0 0.00 0.00 0.00 92 1007.1
20260509235403 58 0 0.0 0.0 0.00 0.00 0.00 92 1007.1
20260509234504 59 0 0.0 0.0 0.00 0.00 0.00 92 1007.1
20260509233605 59 0 0.0 0.0 0.00 0.00 0.00 91 1007.1
20260509232703 59 0 0.0 0.0 0.00 0.00 0.00 91 1007.1
20260509232015 60 90 0.0 2.6 0.00 0.00 0.00 91 1008.1
20260509230905 60 0 0.0 0.0 0.00 0.00 0.00 91 1008.1
20260509230005 61 0 0.0 0.0 0.00 0.00 0.00 91 1008.1
20260509225403 61 0 0.0 0.0 0.00 0.00 0.00 91 1008.1
20260509224504 61 0 0.0 0.0 0.00 0.00 0.00 90 1008.1
20260509223603 61 90 0.0 2.6 0.00 0.00 0.00 90 1008.1
20260509222705 62 0 0.0 0.0 0.00 0.00 0.00 90 1008.1
20260509221803 62 0 0.0 0.0 0.00 0.00 0.00 90 1008.1
20260509220903 62 90 0.0 3.5 0.00 0.00 0.00 90 1008.1
20260509220004 63 0 0.0 0.0 0.00 0.00 0.00 89 1008.1
20260509215404 63 90 0.0 4.3 0.00 0.00 0.00 90 1008.1
20260509214505 63 90 0.0 4.3 0.00 0.00 0.00 90 1008.1
20260509213603 64 0 0.0 0.0 0.00 0.00 0.00 90 1008.1
20260509212706 64 90 0.0 2.6 0.00 0.00 0.00 90 1008.1
20260509211803 64 71 0.0 3.5 0.00 0.00 0.00 91 1008.1
20260509210903 64 0 0.0 0.0 0.00 0.00 0.00 91 1008.1
20260509210003 64 0 0.0 0.0 0.00 0.00 0.00 91 1008.1
20260509205404 64 0 0.0 0.0 0.00 0.00 0.00 90 1008.1
20260509204503 64 0 0.0 0.0 0.00 0.00 0.00 90 1008.1
20260509203603 64 0 0.0 0.0 0.00 0.00 0.00 89 1008.1
20260509202703 64 0 0.0 0.0 0.00 0.00 0.00 88 1008.1
20260509201805 64 0 0.0 0.0 0.00 0.00 0.00 86 1008.1
20260509200903 64 0 0.0 0.0 0.00 0.00 0.00 85 1008.1
20260509200215 65 0 0.0 0.0 0.00 0.00 0.00 84 1008.1
20260509195614 65 0 0.0 0.0 0.00 0.00 0.00 83 1008.1
20260509194505 65 0 0.0 0.0 0.00 0.00 0.00 82 1008.1
20260509193603 66 0 0.0 0.0 0.00 0.00 0.00 81 1008.1
20260509192705 66 0 0.0 0.0 0.00 0.00 0.00 81 1008.1
20260509191803 66 0 0.0 0.0 0.00 0.00 0.00 80 1008.1
20260509190904 67 0 0.0 0.0 0.00 0.00 0.00 79 1007.1
20260509190006 67 0 0.0 0.0 0.00 0.00 0.00 79 1007.1
20260509185403 67 0 0.0 0.0 0.00 0.00 0.00 78 1008.1
20260509184503 68 0 0.0 0.0 0.00 0.00 0.00 78 1008.1
20260509183815 68 0 0.0 0.0 0.00 0.00 0.00 78 1007.1
20260509182914 69 0 0.0 0.0 0.00 0.00 0.00 77 1007.1
20260509181803 69 0 0.0 0.0 0.00 0.00 0.00 76 1007.1
20260509180903 69 0 0.0 0.0 0.00 0.00 0.00 76 1007.1
20260509180003 70 0 0.0 0.0 0.00 0.00 0.00 75 1007.1
20260509175403 70 0 0.0 0.0 0.00 0.00 0.00 75 1007.1
20260509174713 70 0 0.0 0.0 0.00 0.00 0.00 75 1007.1
20260509173814 70 0 0.0 0.0 0.00 0.00 0.00 75 1007.1
20260509172705 70 0 0.0 0.0 0.00 0.00 0.00 75 1007.1
20260509171804 70 0 0.0 0.0 0.00 0.00 0.00 75 1007.1
20260509170903 70 0 0.0 0.0 0.00 0.00 0.00 75 1007.1
20260509170004 70 337 0.0 0.9 0.00 0.00 0.00 74 1007.1
20260509165403 71 0 0.0 0.0 0.00 0.00 0.00 74 1007.1
20260509164505 71 0 0.0 0.0 0.00 0.00 0.00 74 1007.1
20260509163605 71 0 0.0 0.0 0.00 0.00 0.00 73 1007.1
20260509162704 72 22 0.0 2.6 0.00 0.00 0.00 72 1007.1
20260509161805 72 0 0.0 0.0 0.00 0.00 0.00 71 1007.1
20260509160903 73 0 0.0 0.0 0.00 0.00 0.00 71 1007.1
20260509160003 74 0 0.0 0.0 0.00 0.00 0.00 70 1007.1
20260509155403 74 0 0.0 0.0 0.00 0.00 0.00 70 1007.1
20260509154714 75 0 0.0 0.0 0.00 0.00 0.00 69 1007.1
20260509153814 75 315 0.0 2.6 0.00 0.00 0.00 70 1007.1
20260509152913 74 0 0.0 0.0 0.00 0.00 0.00 70 1007.1
20260509151803 75 0 0.0 0.0 0.00 0.00 0.00 72 1007.1
20260509150903 75 202 0.0 0.9 0.00 0.00 0.00 72 1007.1
20260509150005 74 252 0.0 1.7 0.00 0.00 0.00 72 1007.1
20260509145403 73 225 1.7 1.7 0.00 0.00 0.00 74 1007.1
20260509144503 72 274 0.0 2.6 0.00 0.00 0.00 75 1007.1
20260509143603 72 282 2.6 2.6 0.00 0.00 0.00 75 1007.1
20260509142705 72 274 0.0 1.7 0.00 0.00 0.00 74 1007.1
20260509141805 72 225 0.0 3.5 0.00 0.00 0.00 73 1007.1
20260509140903 73 0 0.0 0.0 0.00 0.00 0.00 73 1007.1
20260509140004 73 0 0.0 0.0 0.00 0.00 0.00 73 1007.1
20260509135614 73 0 0.0 0.0 0.00 0.00 0.00 73 1007.1
20260509134503 74 0 0.0 0.0 0.00 0.00 0.00 73 1007.1
20260509133603 75 0 0.0 0.0 0.00 0.00 0.00 73 1008.1
20260509132703 75 0 0.0 0.0 0.00 0.00 0.00 73 1008.1
20260509131805 75 0 0.0 0.0 0.00 0.00 0.00 74 1008.1
20260509130905 74 0 0.0 0.0 0.00 0.00 0.00 74 1008.1
20260509130003 74 0 0.0 0.0 0.00 0.00 0.00 75 1008.1
20260509125616 74 0 0.0 0.0 0.00 0.00 0.00 74 1008.1
20260509124504 73 90 0.0 0.9 0.00 0.00 0.00 74 1008.1
20260509123605 74 0 0.0 0.0 0.00 0.00 0.00 74 1008.1
20260509122703 74 0 0.0 0.0 0.00 0.00 0.00 74 1008.1
20260509121803 73 0 0.0 0.0 0.00 0.00 0.00 76 1008.1
20260509120903 73 0 0.0 0.0 0.00 0.00 0.00 75 1008.1
20260509120216 73 0 0.0 0.0 0.00 0.00 0.00 76 1008.1
20260509115403 73 0 0.0 0.0 0.00 0.00 0.00 77 1008.1
20260509114504 73 0 0.0 0.0 0.00 0.00 0.00 77 1008.1
20260509113605 72 0 0.0 0.0 0.00 0.00 0.00 78 1008.1
20260509112705 72 0 0.0 0.0 0.00 0.00 0.00 77 1008.1
20260509111803 72 0 0.0 0.0 0.00 0.00 0.00 77 1008.1
20260509110903 72 0 0.0 0.0 0.00 0.00 0.00 79 1008.1
20260509110215 72 67 0.0 0.9 0.00 0.00 0.00 79 1008.1
20260509105403 71 90 0.0 0.9 0.00 0.00 0.00 79 1008.1
20260509104505 71 90 0.0 0.9 0.00 0.00 0.00 79 1008.1
20260509103603 72 0 0.0 0.0 0.00 0.00 0.00 80 1008.1
20260509102703 72 0 0.0 0.0 0.00 0.00 0.00 80 1008.1
20260509101803 72 0 0.0 0.0 0.00 0.00 0.00 82 1008.1
20260509100903 72 90 0.0 2.6 0.00 0.00 0.00 82 1008.1
20260509100004 71 90 0.0 2.6 0.00 0.00 0.00 83 1008.1
20260509095404 70 0 0.0 0.0 0.00 0.00 0.00 83 1008.1
20260509094505 70 0 0.0 0.0 0.00 0.00 0.00 85 1008.1
20260509093603 69 0 0.0 0.0 0.00 0.00 0.00 86 1008.1
20260509092703 68 90 0.0 1.7 0.00 0.00 0.00 87 1008.1
20260509091803 68 0 0.0 0.0 0.00 0.00 0.00 89 1008.1
20260509090903 67 90 0.0 0.9 0.00 0.00 0.00 90 1008.1
20260509090213 66 90 0.0 2.6 0.00 0.00 0.00 90 1008.1
20260509085403 66 90 0.0 2.6 0.00 0.00 0.00 92 1009.1
20260509084505 65 0 0.0 0.0 0.00 0.00 0.00 92 1009.1
20260509083605 64 90 0.0 1.7 0.00 0.00 0.00 93 1009.1
20260509082703 64 90 0.9 0.9 0.00 0.00 0.00 94 1009.1
20260509081804 63 0 0.0 0.0 0.00 0.00 0.00 94 1009.1
20260509081113 63 0 0.0 0.0 0.00 0.00 0.00 95 1009.1
20260509080003 63 113 0.0 3.5 0.00 0.00 0.00 97 1009.1
20260509075616 63 116 0.0 3.5 0.00 0.00 0.00 98 1009.1
20260509074505 61 0 0.0 0.0 0.00 0.00 0.00 98 1009.1
20260509073603 60 0 0.0 0.0 0.00 0.00 0.00 98 1009.1
20260509072703 59 0 0.0 0.0 0.00 0.00 0.00 98 1009.1
20260509072013 59 0 0.0 0.0 0.00 0.00 0.00 98 1009.1
20260509070904 58 0 0.0 0.0 0.00 0.00 0.00 98 1009.1
20260509070005 58 0 0.0 0.0 0.00 0.00 0.00 98 1009.1